TimeCDT,TemperatureF,Dew PointF,Humidity,Sea Level PressureIn,VisibilityMPH,Wind Direction,Wind SpeedMPH,Gust SpeedMPH,PrecipitationIn,Events,Conditions,WindDirDegrees,DateUTC
12:52 AM,73.0,63.0,71,29.87,10.0,ESE,3.5,-,N/A,,Partly Cloudy,110,2013-06-27 05:52:00
1:52 AM,70.0,64.0,81,29.87,10.0,Calm,Calm,-,N/A,,Clear,0,2013-06-27 06:52:00
2:52 AM,70.0,64.0,81,29.88,10.0,ESE,3.5,-,N/A,,Partly Cloudy,120,2013-06-27 07:52:00
3:52 AM,72.0,64.0,76,29.87,10.0,Calm,Calm,-,N/A,,Partly Cloudy,0,2013-06-27 08:52:00
4:52 AM,68.0,64.0,87,29.89,10.0,Calm,Calm,-,N/A,,Scattered Clouds,0,2013-06-27 09:52:00
5:52 AM,72.0,66.0,81,29.90,10.0,Calm,Calm,-,N/A,,Mostly Cloudy,0,2013-06-27 10:52:00
6:52 AM,70.0,66.0,87,29.91,10.0,SW,3.5,-,0.01,,Mostly Cloudy,220,2013-06-27 11:52:00
7:52 AM,71.1,66.0,84,29.90,10.0,Calm,Calm,-,0.00,Rain,Light Rain,0,2013-06-27 12:52:00
8:52 AM,73.0,69.1,87,29.93,10.0,NW,8.1,-,0.00,,Overcast,320,2013-06-27 13:52:00
9:52 AM,73.0,66.9,81,30.00,9.0,NNW,6.9,-,0.01,Rain,Light Rain,340,2013-06-27 14:52:00
9:56 AM,71.6,68.0,88,30.02,8.0,NNW,4.6,-,0.01,Rain-Thunderstorm,Light Thunderstorms and Rain,330,2013-06-27 14:56:00
10:32 AM,73.4,69.8,88,29.97,9.0,SE,6.9,-,0.08,Rain,Light Rain,130,2013-06-27 15:32:00
10:52 AM,73.0,69.1,87,29.97,10.0,Calm,Calm,-,0.09,Rain,Light Rain,0,2013-06-27 15:52:00
11:52 AM,73.0,66.9,81,29.96,10.0,Calm,Calm,-,0.02,Rain,Light Rain,0,2013-06-27 16:52:00
12:17 PM,71.6,69.8,94,29.97,10.0,North,8.1,-,0.01,Rain-Thunderstorm,Light Thunderstorms and Rain,350,2013-06-27 17:17:00
12:52 PM,72.0,69.1,91,29.98,10.0,NNW,11.5,-,0.10,Rain-Thunderstorm,Light Thunderstorms and Rain,340,2013-06-27 17:52:00
1:11 PM,73.4,69.8,88,30.00,10.0,Variable,3.5,-,0.00,Thunderstorm,Thunderstorm,0,2013-06-27 18:11:00
1:52 PM,75.0,66.9,76,29.97,10.0,Calm,Calm,-,0.04,Rain-Thunderstorm,Light Thunderstorms and Rain,0,2013-06-27 18:52:00
2:07 PM,73.4,64.4,73,30.00,10.0,Calm,Calm,-,0.00,,Overcast,0,2013-06-27 19:07:00
2:52 PM,77.0,66.9,71,29.97,10.0,Calm,Calm,-,0.01,,Mostly Cloudy,0,2013-06-27 19:52:00
3:52 PM,80.1,66.9,64,29.96,10.0,Calm,Calm,-,N/A,,Mostly Cloudy,0,2013-06-27 20:52:00
4:52 PM,82.0,69.1,65,29.94,10.0,North,3.5,-,N/A,,Mostly Cloudy,350,2013-06-27 21:52:00
5:52 PM,84.9,69.1,59,29.92,10.0,North,6.9,-,N/A,,Mostly Cloudy,360,2013-06-27 22:52:00
6:52 PM,84.0,69.1,61,29.91,10.0,Calm,Calm,-,N/A,,Scattered Clouds,0,2013-06-27 23:52:00
7:52 PM,84.0,70.0,63,29.91,10.0,WNW,4.6,-,N/A,,Overcast,290,2013-06-28 00:52:00
8:52 PM,77.0,71.1,82,29.91,10.0,NNW,5.8,-,N/A,,Mostly Cloudy,330,2013-06-28 01:52:00
9:52 PM,77.0,68.0,74,29.94,10.0,Variable,3.5,-,N/A,,Mostly Cloudy,0,2013-06-28 02:52:00
10:52 PM,73.0,68.0,84,29.96,10.0,Calm,Calm,-,N/A,,Scattered Clouds,0,2013-06-28 03:52:00
11:52 PM,72.0,66.9,84,29.95,10.0,Calm,Calm,-,N/A,,Scattered Clouds,0,2013-06-28 04:52:00